Location: Eyholz
(46.2952°N, 7.9088°E)
Time: 01:45:21
(UTC+00:00)

Daily predictions for brighter satellites

Satellite Brightness Start Highest point End
(mag) Time Altitude Azimuth Time Altitude Azimuth Time Altitude Azimuth
USA 267 4.4 03:25:42 10° SE 03:29:01 32° SSE 03:29:01 32° SSE
Cosmos 2278 Rocket 4.1 03:36:40 20° SE 03:36:40 20° SE 03:38:21 10° SSE
Cosmos 2219 Rocket 4.1 03:41:53 20° NNE 03:41:53 20° NNE 03:43:37 10° NNE
Cosmos 2237 Rocket 2.9 03:43:06 50° ENE 03:43:06 50° ENE 03:47:43 10° NE
BREEZE-M DEB (TANK) 3.9 03:55:50 66° WNW 03:57:09 88° SSW 04:01:31 10° ESE
Cosmos 1513 Rocket 4.5 03:57:03 69° SSE 03:57:43 77° E 04:03:54 10° NNE
Cosmos 2333 Rocket 3.9 04:04:35 21° N 04:04:35 21° N 04:06:39 10° NNE
Lacrosse 4 Rocket 2.9 04:04:26 36° E 04:04:26 36° E 04:07:48 10° NE
FENGYUN 3A 4.2 04:00:58 10° NNE 04:04:53 49° NNE 04:04:53 49° NNE
Cosmos 1891 Rocket 4.3 04:10:03 84° NW 04:10:03 84° NW 04:16:02 10° N
Cosmos 2360 Rocket 4.4 04:15:25 12° N 04:15:25 12° N 04:16:02 10° N
Cosmos 1464 Rocket 3.8 04:13:47 58° SSW 04:15:05 85° W 04:21:18 10° N
Gbstr 26 Del rocket 4.4 04:13:50 57° SW 04:15:36 82° SSE 04:23:46 10° ENE
Cosmos 841 Rocket 3.8 04:16:53 55° NNE 04:16:53 55° NNE 04:20:57 10° NNE
Cosmos 1980 3.7 04:17:06 69° N 04:17:06 69° N 04:22:11 10° NNE
MOS 1 Rocket 4.4 04:14:15 10° SE 04:18:46 42° ENE 04:23:04 10° N
Meteor 1-21 Rocket 4.2 04:17:53 36° N 04:20:25 90° E 04:26:17 10° S
Meteor 2-13 Rocket 4.4 04:15:06 10° N 04:21:19 85° E 04:27:28 10° S
FALCON 9 R/B 4.3 04:24:54 11° SSW 04:24:54 11° SSW 04:25:14 10° S
Cosmos 1072 Rocket 4.3 04:22:08 65° WSW 04:22:49 70° W 04:29:10 10° N
COSMOS 2428 4.1 04:25:09 25° NNW 04:25:09 25° NNW 04:28:03 10° NNE
SKYMED 2 4.0 04:18:59 10° SSE 04:23:15 60° ENE 04:23:56 52° NNE
Atlas Centaur 2 4.2 04:26:50 20° SSW 04:28:43 22° S 04:34:28 10° SE
ATLAS CENTAUR R/B 2.2 04:31:44 40° NE 04:31:44 40° NE 04:34:14 10° NE
METEOR-M 4.0 04:28:12 10° N 04:33:34 72° WNW 04:34:33 57° SW
Cosmos 1689 Rocket 4.2 04:33:02 10° SE 04:35:29 25° ENE 04:35:31 25° ENE
Cosmos 2150 Rocket 4.3 04:33:50 24° NNW 04:37:10 69° ENE 04:42:33 10° SSE
Lacrosse 5 rocket 3.7 04:40:11 11° S 04:40:11 11° S 04:40:23 10° S
Cosmos 2084 Rocket 3.4 04:37:18 85° NNE 04:37:21 86° NE 04:41:52 10° SE
Cosmos 1092 Rocket 4.2 04:32:15 10° N 04:38:24 69° E 04:44:34 10° SSE
Cosmos 1340 4.2 04:42:00 26° S 04:42:00 26° S 04:43:46 10° S
Cosmos 372 Rocket 4.0 04:40:33 59° WSW 04:40:33 59° WSW 04:45:31 10° S
ALOS 4.1 04:36:26 10° N 04:37:53 19° N 04:37:53 19° N
USA 215 3.9 04:35:33 10° NE 04:41:30 40° NNW 04:43:15 34° NW
Cosmos 1602 Rocket 3.6 04:40:25 28° N 04:42:44 83° E 04:47:13 10° S
BREEZE-M DEB (TANK) 4.4 04:44:16 18° ENE 04:44:16 18° ENE 04:45:03 10° ENE
GEOS 3 Rocket 4.4 04:38:18 10° ESE 04:43:27 49° NE 04:46:52 21° NNW
ADEOS 3.4 04:38:44 10° N 04:43:56 71° WNW 04:47:41 19° SSW
USA 307 2.7 04:44:43 77° SSW 04:44:58 83° SE 04:49:12 10° ENE
NOSS 0 Rocket 4.2 04:45:40 44° WNW 04:46:05 45° NW 04:51:59 10° NNE
FALCON 9 DEB 4.5 04:46:56 30° SE 04:47:02 30° SE 04:49:49 10° ENE
Cosmos 1328 3.7 04:46:59 49° N 04:47:57 81° E 04:51:52 10° S
Nadezhda 4 Rocket 3.8 04:42:50 10° NNW 04:48:53 63° W 04:54:54 10° S
BREEZE-M (TANK) 4.0 04:52:16 17° SE 04:52:16 17° SE 04:52:48 10° SE
USA 305 2.7 04:50:49 71° WSW 04:51:15 87° NNW 04:55:31 10° ENE
USA 308 2.8 04:53:18 64° WSW 04:53:57 87° NW 04:58:15 10° ENE
Cosmos 1400 Rocket 2.7 04:53:19 54° SW 04:54:07 72° WNW 04:58:15 10° N
Cosmos 2098 Rocket 4.2 04:48:36 10° N 04:54:13 54° ENE 04:58:38 10° SSE
SL-4 R/B 1.7 04:55:30 73° NW 04:55:36 74° NNW 04:59:37 10° ENE
FALCON 9 DEB 4.4 04:55:02 29° SSE 04:55:43 32° SE 04:58:34 10° ENE
Cosmos 1943 Rocket 2.6 04:51:10 13° NNW 04:56:13 61° ENE 05:01:50 10° SE
Cosmos 2034 Rocket 4.0 04:50:27 10° SSW 04:56:44 60° WNW 05:03:01 10° N
Meteor 1-16 Rocket 4.2 04:51:50 10° SSW 04:57:42 66° WNW 05:03:37 10° N
Cosmos 1825 Rocket 4.5 04:53:52 10° N 04:58:14 49° ENE 05:02:34 10° SSE
Cosmos 1570 Rocket 4.2 04:57:36 44° W 04:58:19 47° WNW 05:03:24 10° NNE
CZ-4B R/B 4.0 04:57:11 10° S 04:57:25 11° S 04:57:25 11° S
Cosmos 540 Rocket 4.1 05:01:40 34° NW 05:01:40 34° NW 05:05:52 10° N
CZ-2C R/B 4.1 04:56:35 10° SE 05:01:23 37° ENE 05:06:18 10° N
SJ-12 3.9 04:58:08 10° N 05:02:13 58° WNW 05:04:12 28° SW
USA 306 2.8 05:02:36 52° W 05:03:32 74° NNW 05:07:46 10° NE
Cosmos 2298 Rocket 3.9 05:00:29 23° NNW 05:03:52 68° WSW 05:09:08 10° S
Cosmos 1814 Rocket 4.2 05:03:50 38° W 05:05:00 45° WNW 05:09:56 10° N
NOSS 3-2 (A) 3.3 05:00:28 17° SW 05:05:00 86° NW 05:11:34 10° NE
Envisat 3.7 05:01:25 10° NNE 05:06:26 56° E 05:11:25 10° S
Cosmos 2369 Rocket 3.2 05:01:10 10° NNW 05:06:34 45° NE 05:11:54 10° SE
Cosmos 1125 Rocket 3.5 05:01:52 13° NNW 05:06:40 89° ENE 05:11:59 10° SSE
Cosmos 1634 Rocket 4.1 05:00:50 10° S 05:06:59 80° E 05:13:12 10° N
CZ-4B R/B 2.5 05:07:39 10° N 05:11:18 70° WNW 05:15:04 10° SSW
COSMO-SKYMED 1 2.8 05:07:14 10° S 05:11:21 43° W 05:12:34 35° WNW
PSLV R/B 3.8 05:09:17 10° S 05:13:24 76° WSW 05:17:36 10° NNW
Cosmos 2278 Rocket 4.0 05:18:36 14° SW 05:18:36 14° SW 05:19:44 10° SW
Cosmos 2228 3.2 05:12:59 10° S 05:17:11 70° E 05:21:26 10° NNE
SL-16 R/B 2.1 05:12:25 10° SSW 05:18:04 74° WNW 05:23:47 10° NNE
NOSS 3-2 (C) 3.5 05:13:02 10° SSW 05:18:39 74° SE 05:25:05 10° NE
CZ-2C R/B 3.6 05:19:17 12° SW 05:20:52 14° SSW 05:23:06 10° SSE
ERBS 3.8 05:18:38 10° SSW 05:21:40 35° SE 05:24:42 10° ENE
Cosmos 972 Rocket 4.3 05:16:14 10° SSW 05:22:28 67° WNW 05:28:02 10° NNE
Cosmos 2219 Rocket 4.0 05:23:36 13° NNW 05:23:36 13° NNW 05:25:56 10° N
Cosmos 1953 Rocket 4.1 05:19:16 10° N 05:23:34 59° ENE 05:27:52 10° SSE
ERS-2 2.5 05:20:37 10° S 05:24:03 40° W 05:25:09 31° WNW
Cosmos 2026 Rocket 4.0 05:18:18 10° NNW 05:24:39 71° W 05:30:59 10° S
CENTAUR R/B 2.5 05:19:59 10° SW 05:25:53 86° SE 05:32:59 10° NE
ATLAS 5 CENTAUR R/B 3.5 05:25:47 16° SW 05:25:59 16° SW 05:29:00 10° S
Cosmos 2237 Rocket 3.1 05:24:59 25° WNW 05:26:33 28° NW 05:31:26 10° N
H-2A R/B 2.7 05:24:38 10° N 05:28:18 56° WNW 05:31:58 10° SSW
FALCON 9 DEB 3.1 05:30:00 20° SW 05:31:59 69° SSE 05:35:07 10° ENE
Meteor PRIRODA 4.0 05:29:31 10° N 05:32:55 39° WNW 05:36:20 10° SW
Cosmos 1606 Rocket 3.4 05:29:20 10° S 05:33:38 88° W 05:38:00 10° N
NOAA 6 4.3 05:32:13 10° NNE 05:37:27 76° ESE 05:42:37 10° S
FALCON 9 DEB 2.8 05:38:25 19° WSW 05:40:29 90° NNW 05:43:36 10° ENE
Lacrosse 4 Rocket 2.5 05:40:48 21° W 05:42:32 27° NW 05:46:18 10° NNE
Meteor 1-11 4.5 05:40:08 10° NNW 05:45:24 44° W 05:50:40 10° SSW
Cosmos 1300 2.9 05:41:58 10° SSW 05:45:37 45° WNW 05:49:19 10° N
SAR-Lupe-4 4.5 05:44:36 10° SSW 05:47:44 28° W 05:50:19 13° NW
Cosmos 1315 Rocket 2.9 05:46:24 10° SSW 05:50:12 48° WNW 05:54:01 10° N
deb Chang Zheng 4 4.4 05:46:58 10° N 05:50:32 27° WNW 05:54:04 10° WSW
Cosmos 2142 Rocket 4.5 05:44:54 10° SSW 05:51:11 69° W 05:57:25 10° N
[s.n.47389] 3.5 05:49:02 10° SW 05:51:30 43° SE 05:53:59 10° ENE
[s.n.47399] 3.5 05:49:04 10° SW 05:51:32 43° SE 05:54:01 10° ENE
[s.n.47393] 3.5 05:49:06 10° SW 05:51:34 43° SE 05:54:03 10° ENE
[s.n.47353] 3.5 05:49:10 10° SW 05:51:38 43° SE 05:54:08 10° ENE
[s.n.47355] 3.5 05:49:13 10° SW 05:51:42 43° SE 05:54:12 10° ENE
[s.n.47365] 3.5 05:49:16 10° SW 05:51:45 43° SE 05:54:15 10° ENE
[s.n.47383] 3.5 05:49:21 10° SW 05:51:49 43° SE 05:54:19 10° ENE
[s.n.47400] 3.5 05:49:20 10° SW 05:51:52 44° SE 05:54:24 10° ENE
[s.n.47378] 3.5 05:49:27 10° SW 05:51:56 44° SE 05:54:26 10° ENE
[s.n.47395] 3.5 05:49:29 10° SW 05:51:58 43° SE 05:54:28 10° ENE
[s.n.47370] 3.5 05:49:36 10° SW 05:52:05 44° SE 05:54:34 10° ENE
[s.n.47379] 3.5 05:49:36 10° SW 05:52:05 44° SE 05:54:34 10° ENE
[s.n.47351] 3.5 05:49:37 10° SW 05:52:08 44° SE 05:54:41 10° ENE
[s.n.47394] 3.5 05:49:42 10° SW 05:52:11 44° SE 05:54:41 10° ENE
[s.n.47354] 3.5 05:49:46 10° SW 05:52:15 44° SE 05:54:45 10° ENE
[s.n.47360] 3.5 05:49:48 10° SW 05:52:17 44° SE 05:54:47 10° ENE
[s.n.47369] 3.5 05:49:53 10° SW 05:52:22 44° SE 05:54:52 10° ENE
[s.n.47406] 3.5 05:49:55 10° SW 05:52:24 44° SE 05:54:54 10° ENE
[s.n.47384] 3.5 05:49:58 10° SW 05:52:27 44° SE 05:54:58 10° ENE
[s.n.47356] 3.5 05:50:02 10° SW 05:52:31 44° SE 05:55:00 10° ENE
[s.n.47407] 3.5 05:50:05 10° SW 05:52:34 44° SE 05:55:04 10° ENE
[s.n.47385] 3.5 05:50:04 10° SW 05:52:36 45° SE 05:55:09 10° ENE
[s.n.47358] 3.5 05:50:12 10° SW 05:52:41 44° SE 05:55:12 10° ENE
[s.n.47398] 3.5 05:50:14 10° SW 05:52:43 44° SE 05:55:14 10° ENE
[s.n.47361] 3.5 05:50:18 10° SW 05:52:47 44° SE 05:55:18 10° ENE
[s.n.47392] 3.5 05:50:20 10° SW 05:52:49 45° SE 05:55:19 10° ENE
[s.n.47382] 3.5 05:50:24 10° SW 05:52:53 45° SE 05:55:23 10° ENE
[s.n.47359] 3.5 05:50:25 10° SW 05:52:56 45° SE 05:55:28 10° ENE
[s.n.47401] 3.5 05:50:31 10° SW 05:53:01 45° SE 05:55:31 10° ENE
[s.n.47380] 3.5 05:50:30 10° SW 05:53:02 45° SE 05:55:35 10° ENE
[s.n.47386] 3.5 05:50:37 10° SW 05:53:07 45° SE 05:55:38 10° ENE
[s.n.47408] 3.5 05:50:37 10° SW 05:53:09 45° SE 05:55:43 10° ENE
[s.n.47396] 3.4 05:50:44 10° SW 05:53:13 45° SE 05:55:44 10° ENE
[s.n.47391] 3.4 05:50:45 10° SW 05:53:15 45° SE 05:55:46 10° ENE
[s.n.47402] 3.4 05:50:49 10° SW 05:53:19 45° SE 05:55:49 10° ENE
[s.n.47404] 3.4 05:50:53 10° SW 05:53:22 45° SE 05:55:53 10° ENE
[s.n.47403] 3.4 05:50:56 10° SW 05:53:25 45° SE 05:55:56 10° ENE
Cosmos 1655 Rocket 4.2 05:47:10 10° N 05:53:28 78° E 05:59:46 10° SSE
[s.n.47381] 3.4 05:50:59 10° SW 05:53:29 45° SE 05:55:59 10° ENE
[s.n.47372] 3.4 05:51:03 10° SW 05:53:33 45° SE 05:56:04 10° ENE
[s.n.47405] 3.4 05:51:05 10° SW 05:53:35 45° SE 05:56:06 10° ENE
[s.n.47368] 3.4 05:51:10 10° SW 05:53:40 45° SE 05:56:11 10° ENE
[s.n.47350] 3.4 05:51:13 10° SW 05:53:42 46° SE 05:56:13 10° ENE
[s.n.47349] 3.4 05:51:11 10° SW 05:53:44 46° SE 05:56:18 10° ENE
[s.n.47367] 3.4 05:51:16 10° SW 05:53:48 46° SE 05:56:19 10° ENE
[s.n.47373] 3.4 05:51:18 10° SW 05:53:51 46° SE 05:56:24 10° ENE
[s.n.47377] 3.4 05:51:21 10° SW 05:53:54 46° SE 05:56:28 10° ENE
[s.n.47371] 3.4 05:51:24 10° SW 05:53:57 46° SE 05:56:30 10° ENE
[s.n.47362] 3.4 05:51:27 10° SW 05:53:59 46° SE 05:56:33 10° ENE
[s.n.47363] 3.4 05:51:31 10° SW 05:54:03 47° SE 05:56:37 10° ENE
[s.n.47374] 3.4 05:51:36 10° SW 05:54:07 46° SE 05:56:39 10° ENE
[s.n.47357] 3.4 05:51:40 10° SW 05:54:11 46° SE 05:56:43 10° ENE
[s.n.47390] 3.4 05:51:44 10° SW 05:54:14 46° SE 05:56:45 10° ENE
[s.n.47387] 3.4 05:51:47 10° SW 05:54:17 46° SE 05:56:48 10° ENE
[s.n.47375] 3.4 05:51:47 10° SW 05:54:18 46° SE 05:56:49 10° ENE
[s.n.47376] 3.4 05:51:47 10° SW 05:54:19 47° SE 05:56:54 10° ENE
[s.n.47366] 3.4 05:51:56 10° SW 05:54:27 47° SE 05:57:00 10° ENE
[s.n.47352] 3.4 05:51:59 10° SW 05:54:30 47° SE 05:57:03 10° ENE
[s.n.47364] 3.4 05:52:03 10° SW 05:54:34 47° SE 05:57:07 10° ENE
[s.n.47388] 3.4 05:52:06 10° SW 05:54:37 47° SE 05:57:10 10° ENE
[s.n.47397] 3.4 05:52:12 10° SW 05:54:42 47° SE 05:57:14 10° ENE
Cosmos 2297 4.4 05:50:11 10° NW 05:55:14 33° WSW 06:00:16 10° SSW
PAYLOAD B 4.4 05:50:20 10° NNE 05:55:57 85° ESE 06:01:34 10° SSW
MOS 1 Rocket 4.4 05:53:18 10° SW 05:57:09 23° W 06:00:51 10° NW
Cosmos 1346 Rocket 3.8 05:55:03 10° NW 05:58:25 27° W 06:01:47 10° SSW
ATLAS 3B R/B 4.2 05:53:06 10° S 05:59:04 39° ESE 06:05:09 10° NE
USA 238 DEB 3.8 05:54:29 10° WSW 06:00:56 53° NW 06:07:44 10° NE
USA 238 3.8 05:54:35 10° WSW 06:01:02 53° NW 06:07:50 10° NE
NOAA 12 4.1 05:59:09 10° NNE 06:04:29 89° WNW 06:09:48 10° SSW
Cosmos 1689 Rocket 3.9 06:04:53 10° SW 06:06:32 14° W 06:07:23 13° WNW
ATLAS CENTAUR R/B 2.8 06:07:56 12° WNW 06:09:51 16° NW 06:12:14 10° N
Cosmos 1441 Rocket 3.4 06:06:08 10° N 06:10:07 82° ENE 06:14:00 10° SSE
TIMED 4.5 06:07:16 10° SSW 06:11:37 71° WNW 06:16:01 10° NNE
BREEZE M DEB (TANK) 2.0 06:12:13 10° WSW 06:14:36 87° NNW 06:20:13 10° ENE
SL-19 R/B 4.1 06:10:59 10° N 06:14:38 53° WNW 06:17:48 10° SSW
FengYun 1-2 T 4.5 06:09:43 10° NNE 06:15:26 81° ESE 06:21:05 10° SSW
MOS 1-B 4.4 06:11:52 10° N 06:17:36 65° WNW 06:23:18 10° SSW
Cosmos 1726 Rocket 4.0 06:13:59 10° SW 06:18:00 38° WNW 06:22:03 10° N
YAOGAN 6 3.8 06:15:28 10° NNW 06:18:25 23° WNW 06:21:22 10° WSW
Cosmos 1892 2.9 06:15:13 10° NNW 06:18:57 50° W 06:22:41 10° S
Spot 2 4.2 06:15:24 10° N 06:19:17 46° WNW 06:23:13 10° SW
Cosmos 1184 Rocket 3.1 06:16:15 10° N 06:19:31 68° ENE 06:22:45 10° SSE
Cosmos 2058 Rocket 3.1 06:15:36 10° SSW 06:19:56 59° WNW 06:24:22 10° N
Cosmos 1603 3.7 06:15:37 10° SSW 06:21:14 85° WNW 06:26:56 10° NNE
GEOS 3 Rocket 4.3 06:16:33 10° S 06:21:32 39° WSW 06:26:34 10° NW
FALCON 9 DEB 3.3 06:19:50 10° W 06:22:49 43° NNW 06:25:49 10° NE
USA 215 4.2 06:17:48 10° ENE 06:23:36 36° N 06:29:25 10° NW
USA 307 3.7 06:21:26 10° W 06:25:19 34° NNW 06:29:12 10° NE
